Ephrata, WA

1:05 AM PST on February 21, 2017 (GMT -0800)
Ephrata Municipal

Weather History for KEPH - March, 2014

Change the Weather History Date:

Saturday, March 8, 2014

  Actual Average Record
Temperature  
Mean Temperature 40 °F 40 °F  
Max Temperature 47 °F 51 °F 68 °F (2005)
Min Temperature 32 °F 30 °F 16 °F (1951)
Degree Days  
Heating Degree Days 25 25  
Month to date heating degree days 225 207  
Since 1 July heating degree days 4807 4780  
Cooling Degree Days 0 0  
Month to date cooling degree days 0 0  
Year to date cooling degree days 0 0  
Moisture  
Dew Point 35 °F    
Average Humidity 77    
Maximum Humidity 89    
Minimum Humidity 65    
Precipitation  
Precipitation 0.01 in 0.02 in 0.58 in (1951)
Month to date precipitation 0.45 0.20  
Year to date precipitation 1.42 1.85  
Sea Level Pressure  
Sea Level Pressure 30.02 in    
Wind  
Wind Speed 4 mph (North)    
Max Wind Speed 9 mph    
Max Gust Speed 10 mph    
Visibility 10 miles    
Events Rain    
T = Trace of Precipitation, MM = Missing Value Source: NWS Daily Summary

Daily Weather History Graph

Daily Weather History Graph

Search for Another Location

Airport or City:

Trip Planner

Search our weather history database for the weather conditions in past years. The results will help you decide how hot, cold, wet, or windy it might be!

Date:

Astronomy

Mar. 08, 2014 Rise Set
Actual Time 6:24 AM PST 5:53 PM PST
Civil Twilight 5:54 AM PST 6:24 PM PST
Nautical Twilight 5:18 AM PST 6:59 PM PST
Astronomical Twilight 4:42 AM PST 7:35 PM PST
Moon 10:44 AM PST (3/8) 1:20 AM PST (3/8)
Length of Visible Light 12h 30m
Length of Day
11h 29m
First Quarter, 53% of the Moon is Illuminated
Mar 8
First Quarter
Mar 16
Full
Mar 23
Last Quarter
Mar 30
New
Apr 7
First Quarter

Hourly Weather History & Observations

Time (PST) Temp. Windchill Dew Point Humidity Pressure Visibility Wind Dir Wind Speed Gust Speed Precip Events Conditions
12:53 AM 34.0 °F 28.0 °F 30.0 °F 85% 30.18 in 10.0 mi North 6.9 mph - N/A   Clear
1:53 AM 34.0 °F 27.2 °F 30.0 °F 85% 30.18 in 10.0 mi North 8.1 mph - N/A   Clear
2:53 AM 33.1 °F 26.9 °F 30.0 °F 89% 30.17 in 10.0 mi North 6.9 mph - N/A   Clear
3:53 AM 35.1 °F 28.6 °F 30.9 °F 85% 30.16 in 10.0 mi North 8.1 mph - N/A   Clear
4:53 AM 33.1 °F 28.7 °F 30.0 °F 89% 30.15 in 10.0 mi North 4.6 mph - N/A   Clear
5:53 AM 33.1 °F 26.9 °F 30.0 °F 89% 30.15 in 10.0 mi North 6.9 mph - N/A   Clear
6:53 AM 34.0 °F 28.0 °F 30.9 °F 89% 30.14 in 10.0 mi North 6.9 mph - N/A   Clear
7:53 AM 37.0 °F 31.6 °F 33.1 °F 86% 30.15 in 10.0 mi North 6.9 mph - N/A   Clear
8:53 AM 39.0 °F 34.8 °F 35.1 °F 86% 30.12 in 10.0 mi NNE 5.8 mph - N/A   Clear
9:53 AM 41.0 °F 39.0 °F 35.1 °F 79% 30.11 in 10.0 mi North 3.5 mph - N/A   Clear
10:53 AM 43.0 °F 40.3 °F 35.1 °F 74% 30.09 in 10.0 mi North 4.6 mph - N/A   Mostly Cloudy
11:53 AM 44.1 °F 41.5 °F 35.1 °F 71% 30.06 in 10.0 mi NE 4.6 mph - N/A   Overcast
12:53 PM 45.0 °F - 35.1 °F 68% 30.04 in 10.0 mi Calm Calm - N/A   Overcast
1:53 PM 46.9 °F - 36.0 °F 66% 30.00 in 10.0 mi Calm Calm - N/A   Overcast
2:53 PM 46.9 °F - 37.0 °F 68% 29.98 in 10.0 mi Calm Calm - 0.00 in Rain Light Rain
3:53 PM 46.0 °F - 37.9 °F 73% 29.94 in 10.0 mi Calm Calm - 0.01 in   Overcast
4:53 PM 46.0 °F 43.9 °F 37.9 °F 73% 29.91 in 10.0 mi SSW 4.6 mph - N/A   Overcast
5:53 PM 45.0 °F 43.5 °F 37.9 °F 76% 29.90 in 10.0 mi SSW 3.5 mph - N/A   Overcast
6:53 PM 44.1 °F - 37.9 °F 79% 29.88 in 10.0 mi Calm Calm - N/A   Scattered Clouds
7:53 PM 44.1 °F 42.5 °F 39.0 °F 82% 29.85 in 10.0 mi North 3.5 mph - N/A   Partly Cloudy
8:53 PM 43.0 °F 41.3 °F 37.9 °F 82% 29.83 in 10.0 mi North 3.5 mph - N/A   Clear
9:53 PM 42.1 °F 39.2 °F 37.9 °F 85% 29.81 in 10.0 mi North 4.6 mph - N/A   Clear
10:53 PM 42.1 °F - 37.9 °F 85% 29.79 in 10.0 mi Calm Calm - N/A   Scattered Clouds
11:53 PM 43.0 °F - 39.0 °F 86% 29.80 in 10.0 mi Calm Calm - N/A   Clear